Date String (YYYY-MM-DD hh:mm:ss) UTC,Instrument flags,Ambient pressure (hPa),Sample flow (lpm),Bypass flow (lpm),Sample temperature (°C),Ambient temperature (°C),ASC tube jacket temperature (°C),LED temperature (°C),Box temperature (°C),Sample RH (%),Span deviation,Mass concentration (μg/m³),Mass concentration (μg/m³),Mass concentration (μg/m³)
DateTimeUTC,F1_M11,P_M11,Q1_M11,Q2_M11,T1_M11,T2_M11,T3_M11,T4_M11,T5_M11,U1_M11,ZSPAN_M11,X0_M11,X2_M11,X1_M11
2021-08-21 18:00:00,,0827.7,4.99,0.00,29.6,27.8,00.0,38.7,31.3,25.0,0001.9,0020.97,0013.23,0012.68
2021-08-21 18:01:00,,0827.8,5.00,0.00,29.6,28.0,00.0,38.7,31.4,24.9,0002.1,0021.68,0013.30,0012.73
2021-08-21 18:02:00,,0827.7,5.00,0.00,29.7,28.3,00.0,38.7,31.5,24.8,0002.0,0022.53,0013.34,0012.77
2021-08-21 18:03:00,,0827.8,5.00,0.00,29.7,28.4,00.0,38.7,31.5,25.4,0002.0,0022.33,0013.33,0012.78
2021-08-21 18:04:00,,0827.7,5.00,0.00,29.7,28.6,00.0,38.7,31.6,25.0,0002.1,0022.77,0013.38,0012.80
2021-08-21 18:05:00,,0827.7,4.99,0.00,29.8,28.7,00.0,38.8,31.7,24.9,0002.1,0022.67,0013.41,0012.81
2021-08-21 18:06:00,,0827.7,5.01,0.00,29.8,28.9,00.0,38.8,31.7,24.3,0002.1,0022.48,0013.48,0012.86
2021-08-21 18:07:00,,0827.7,5.00,0.00,29.9,28.9,00.0,38.8,31.7,24.2,0002.1,0022.50,0013.53,0012.91
2021-08-21 18:08:00,,0827.6,4.99,0.00,29.9,28.8,00.0,38.8,31.7,24.4,0002.1,0021.94,0013.61,0012.98
2021-08-21 18:09:00,,0827.6,5.01,0.00,29.8,27.1,00.0,38.8,31.3,24.6,0002.0,0021.59,0013.66,0013.02
2021-08-21 18:10:00,,0827.5,5.00,0.00,29.7,26.1,00.0,38.8,31.0,24.7,0002.0,0021.21,0013.77,0013.09
2021-08-21 18:11:00,,0827.5,4.98,0.00,29.6,26.4,00.0,38.8,31.0,24.7,0002.0,0021.57,0013.84,0013.17
2021-08-21 18:12:00,,0827.5,5.00,0.00,29.5,26.8,00.0,38.7,31.1,24.7,0002.1,0021.01,0013.91,0013.25
2021-08-21 18:13:00,,0827.5,5.01,0.00,29.5,27.2,00.0,38.7,31.2,25.3,0002.0,0020.23,0013.92,0013.28
2021-08-21 18:14:00,,0827.5,5.01,0.00,29.5,27.6,00.0,38.7,31.3,25.4,0002.0,0019.60,0014.00,0013.33
2021-08-21 18:15:00,,0827.5,4.99,0.00,29.6,27.9,00.0,38.7,31.4,24.9,0001.8,0019.66,0014.06,0013.37
2021-08-21 18:16:00,,0827.5,5.01,0.00,29.6,28.1,00.0,38.7,31.4,24.9,0001.8,0020.14,0014.13,0013.43
2021-08-21 18:17:00,,0827.5,4.99,0.00,29.6,28.3,00.0,38.7,31.5,24.9,0001.8,0020.44,0014.12,0013.45
2021-08-21 18:18:00,,0827.6,5.00,0.00,29.7,28.5,00.0,38.7,31.5,24.7,0001.8,0020.57,0014.12,0013.43
2021-08-21 18:19:00,,0827.5,4.99,0.00,29.7,28.6,00.0,38.7,31.6,25.0,0001.7,0021.27,0014.15,0013.44
2021-08-21 18:20:00,,0827.5,5.00,0.00,29.8,28.8,00.0,38.7,31.7,24.5,0001.8,0021.58,0014.19,0013.47
2021-08-21 18:21:00,,0827.6,5.01,0.00,29.8,28.9,00.0,38.8,31.7,24.6,0001.8,0022.35,0014.18,0013.45
2021-08-21 18:22:00,,0827.5,5.00,0.00,29.8,28.5,00.0,38.8,31.6,24.4,0001.8,0022.03,0014.15,0013.42
2021-08-21 18:23:00,,0827.4,5.00,0.00,29.7,26.7,00.0,38.8,31.1,24.6,0001.6,0021.91,0014.12,0013.39
2021-08-21 18:24:00,,0827.4,5.01,0.00,29.6,26.0,00.0,38.7,30.9,24.8,0001.7,0021.86,0014.13,0013.36
2021-08-21 18:25:00,,0827.5,5.00,0.00,29.5,26.4,00.0,38.7,31.0,24.7,0001.9,0022.32,0014.16,0013.38
2021-08-21 18:26:00,,0827.4,5.00,0.00,29.5,26.8,00.0,38.7,31.0,25.3,0002.0,0022.06,0014.14,0013.38
2021-08-21 18:27:00,,0827.4,5.00,0.00,29.4,27.2,00.0,38.6,31.1,24.9,0002.1,0021.70,0014.14,0013.39
2021-08-21 18:28:00,,0827.4,4.99,0.00,29.5,27.6,00.0,38.6,31.2,25.1,0002.2,0021.57,0014.15,0013.37
2021-08-21 18:29:00,,0827.4,5.02,0.00,29.5,27.8,00.0,38.6,31.3,25.2,0002.3,0021.93,0014.13,0013.39
2021-08-21 18:30:00,,0827.4,4.99,0.00,29.5,28.1,00.0,38.6,31.4,25.5,0002.4,0021.51,0014.11,0013.40
2021-08-21 18:31:00,,0827.4,5.00,0.00,29.6,28.3,00.0,38.6,31.4,25.3,0002.4,0021.40,0014.05,0013.36
2021-08-21 18:32:00,,0827.4,5.00,0.00,29.6,28.5,00.0,38.7,31.5,24.8,0002.4,0020.38,0013.98,0013.31
2021-08-21 18:33:00,,0827.3,5.00,0.00,29.7,28.6,00.0,38.7,31.6,24.9,0002.5,0020.25,0013.94,0013.29
2021-08-21 18:34:00,,0827.3,5.00,0.00,29.7,28.8,00.0,38.7,31.6,25.1,0002.5,0020.81,0013.92,0013.27
2021-08-21 18:35:00,,0827.3,4.98,0.00,29.8,28.9,00.0,38.7,31.7,24.7,0002.4,0021.36,0013.91,0013.27
2021-08-21 18:36:00,,0827.2,5.01,0.00,29.8,28.3,00.0,38.7,31.5,24.4,0002.3,0020.83,0013.90,0013.23
2021-08-21 18:37:00,,0827.2,5.00,0.00,29.6,26.5,00.0,38.7,31.0,24.9,0002.4,0020.90,0013.93,0013.24
2021-08-21 18:38:00,,0827.2,5.01,0.00,29.5,26.0,00.0,38.7,30.8,25.6,0002.2,0020.97,0013.88,0013.20
2021-08-21 18:39:00,,0827.2,4.99,0.00,29.4,26.4,00.0,38.7,30.9,26.3,0002.2,0020.95,0013.84,0013.17
2021-08-21 18:40:00,,0827.1,4.99,0.00,29.4,26.8,00.0,38.6,31.0,25.9,0002.1,0020.54,0013.81,0013.12
2021-08-21 18:41:00,,0827.2,5.00,0.00,29.4,27.2,00.0,38.6,31.1,25.7,0002.1,0020.25,0013.76,0013.08
2021-08-21 18:42:00,,0827.1,5.01,0.00,29.4,27.6,00.0,38.6,31.2,26.2,0002.0,0021.09,0013.82,0013.09
2021-08-21 18:43:00,,0827.2,5.01,0.00,29.5,27.9,00.0,38.6,31.3,25.9,0001.9,0021.08,0013.81,0013.09
2021-08-21 18:44:00,,0827.1,5.00,0.00,29.5,28.1,00.0,38.6,31.4,25.3,0001.9,0021.12,0013.81,0013.09
2021-08-21 18:45:00,,0827.1,5.00,0.00,29.6,28.3,00.0,38.6,31.4,25.2,0002.0,0021.04,0013.86,0013.11
2021-08-21 18:46:00,,0827.5,5.01,0.00,29.6,28.5,00.0,38.6,31.5,25.5,0002.0,0021.54,0013.83,0013.09
2021-08-21 18:47:00,,0827.3,4.99,0.00,29.7,28.7,00.0,38.6,31.6,25.5,0002.2,0021.78,0013.80,0013.09
2021-08-21 18:48:00,,0827.0,5.00,0.00,29.7,28.8,00.0,38.7,31.6,25.3,0002.3,0021.68,0013.77,0013.06
2021-08-21 18:49:00,,0827.1,5.00,0.00,29.8,28.9,00.0,38.7,31.7,25.0,0002.2,0021.89,0013.78,0013.08
2021-08-21 18:50:00,,0827.0,5.01,0.00,29.8,28.1,00.0,38.7,31.4,24.5,0002.2,0022.38,0013.84,0013.13
2021-08-21 18:51:00,,0827.0,4.99,0.00,29.6,26.3,00.0,38.7,30.9,24.6,0002.1,0022.80,0013.90,0013.19
2021-08-21 18:52:00,,0827.1,5.01,0.00,29.5,26.0,00.0,38.6,30.8,25.0,0002.1,0024.15,0013.97,0013.23
2021-08-21 18:53:00,,0827.0,5.01,0.00,29.4,26.4,00.0,38.6,30.8,25.8,0002.1,0024.48,0013.98,0013.25
2021-08-21 18:54:00,,0827.1,5.00,0.00,29.4,26.8,00.0,38.6,30.9,25.3,0002.0,0025.14,0014.08,0013.30
2021-08-21 18:55:00,,0827.2,5.00,0.00,29.4,27.2,00.0,38.5,31.1,25.3,0002.0,0025.40,0014.12,0013.34
2021-08-21 18:56:00,,0826.9,4.99,0.00,29.4,27.6,00.0,38.5,31.2,25.8,0001.9,0025.49,0014.08,0013.32
2021-08-21 18:57:00,,0826.9,5.01,0.00,29.4,27.9,00.0,38.5,31.3,25.5,0001.9,0024.64,0014.10,0013.35
2021-08-21 18:58:00,,0827.2,4.99,0.00,29.5,28.1,00.0,38.5,31.3,25.0,0001.7,0024.48,0014.17,0013.39
2021-08-21 18:59:00,,0827.0,5.00,0.00,29.5,28.3,00.0,38.6,31.4,24.7,0001.6,0024.71,0014.22,0013.42
